TimeCDT,TemperatureF,Dew PointF,Humidity,Sea Level PressureIn,VisibilityMPH,Wind Direction,Wind SpeedMPH,Gust SpeedMPH,PrecipitationIn,Events,Conditions,WindDirDegrees,DateUTC
12:54 AM,69.1,64.9,87,30.00,10.0,SSW,5.8,-,N/A,,Scattered Clouds,200,2013-06-24 05:54:00
1:54 AM,69.1,64.9,87,29.98,10.0,South,5.8,-,N/A,,Scattered Clouds,180,2013-06-24 06:54:00
2:42 AM,69.1,64.9,87,30.02,10.0,NW,4.6,-,N/A,Thunderstorm,Thunderstorm,310,2013-06-24 07:42:00
2:54 AM,69.1,64.9,87,30.00,9.0,West,4.6,-,0.00,Rain-Thunderstorm,Light Thunderstorms and Rain,260,2013-06-24 07:54:00
3:19 AM,69.1,64.9,87,30.00,2.0,ESE,10.4,-,0.16,Rain-Thunderstorm,Heavy Thunderstorms and Rain,110,2013-06-24 08:19:00
3:28 AM,68.0,66.0,93,30.00,6.0,East,9.2,-,0.20,Rain-Thunderstorm,Light Thunderstorms and Rain,100,2013-06-24 08:28:00
3:54 AM,69.1,66.0,90,29.99,10.0,East,8.1,-,0.22,Rain-Thunderstorm,Light Thunderstorms and Rain,90,2013-06-24 08:54:00
4:54 AM,68.0,64.9,90,30.04,2.5,North,8.1,-,0.17,Rain-Thunderstorm,Heavy Thunderstorms and Rain,350,2013-06-24 09:54:00
5:01 AM,68.0,66.0,93,30.04,2.5,NNE,6.9,-,0.10,Rain-Thunderstorm,Light Thunderstorms and Rain,30,2013-06-24 10:01:00
5:08 AM,68.0,66.0,93,30.06,7.0,NNE,6.9,-,0.10,Rain-Thunderstorm,Light Thunderstorms and Rain,20,2013-06-24 10:08:00
5:19 AM,68.0,64.9,90,30.07,10.0,NE,11.5,16.1,0.12,Rain,Light Rain,50,2013-06-24 10:19:00
5:54 AM,68.0,64.9,90,30.08,10.0,NE,9.2,-,0.12,,Overcast,40,2013-06-24 10:54:00
6:44 AM,68.0,64.9,90,30.04,10.0,SE,6.9,-,N/A,,Mostly Cloudy,130,2013-06-24 11:44:00
6:54 AM,68.0,66.0,93,30.03,10.0,SE,4.6,-,N/A,,Partly Cloudy,130,2013-06-24 11:54:00
7:54 AM,69.1,66.0,90,30.08,10.0,SSE,5.8,-,N/A,,Mostly Cloudy,150,2013-06-24 12:54:00
8:09 AM,69.1,66.0,90,30.12,10.0,North,9.2,-,N/A,,Overcast,360,2013-06-24 13:09:00
8:54 AM,70.0,66.0,87,30.08,10.0,East,6.9,-,N/A,,Overcast,100,2013-06-24 13:54:00
9:39 AM,73.0,66.9,81,30.10,10.0,NE,4.6,-,N/A,,Overcast,50,2013-06-24 14:39:00
9:54 AM,73.9,66.9,79,30.09,10.0,ENE,4.6,-,N/A,,Overcast,60,2013-06-24 14:54:00
10:54 AM,78.1,69.1,74,30.06,10.0,South,8.1,-,N/A,,Partly Cloudy,180,2013-06-24 15:54:00
11:34 AM,79.0,68.0,69,30.04,10.0,South,9.2,-,N/A,,Scattered Clouds,170,2013-06-24 16:34:00
11:54 AM,79.0,69.1,72,30.02,10.0,SSE,10.4,-,N/A,,Partly Cloudy,160,2013-06-24 16:54:00
12:54 PM,82.9,71.1,67,29.99,9.0,South,13.8,-,N/A,,Clear,180,2013-06-24 17:54:00
1:54 PM,84.0,72.0,67,29.99,10.0,South,9.2,-,N/A,,Clear,190,2013-06-24 18:54:00
2:54 PM,84.0,72.0,67,29.97,10.0,WSW,11.5,-,N/A,,Partly Cloudy,240,2013-06-24 19:54:00
3:54 PM,87.1,73.0,63,29.97,10.0,SSW,8.1,-,N/A,,Clear,210,2013-06-24 20:54:00
4:47 PM,82.9,70.0,65,30.06,10.0,WNW,28.8,38.0,N/A,,Scattered Clouds,300,2013-06-24 21:47:00
4:54 PM,73.0,63.0,71,30.04,10.0,NW,17.3,38.0,N/A,,Mostly Cloudy,310,2013-06-24 21:54:00
5:05 PM,70.0,64.0,81,30.04,10.0,WNW,16.1,32.2,0.00,Rain-Thunderstorm,Light Thunderstorms and Rain,300,2013-06-24 22:05:00
5:43 PM,69.1,64.9,87,30.01,10.0,West,3.5,-,0.00,,Mostly Cloudy,270,2013-06-24 22:43:00
5:54 PM,70.0,64.9,84,29.98,10.0,Calm,Calm,-,0.00,,Partly Cloudy,0,2013-06-24 22:54:00
6:54 PM,70.0,66.0,87,29.92,10.0,East,5.8,-,0.00,Rain,Light Rain,100,2013-06-24 23:54:00
7:54 PM,71.1,64.9,81,29.92,10.0,Calm,Calm,-,0.00,,Clear,0,2013-06-25 00:54:00
8:54 PM,70.0,66.0,87,29.90,10.0,East,4.6,-,N/A,,Clear,100,2013-06-25 01:54:00
9:54 PM,70.0,66.0,87,29.92,10.0,SE,3.5,-,N/A,,Clear,130,2013-06-25 02:54:00
10:54 PM,71.1,64.9,81,29.93,10.0,ESE,4.6,-,N/A,,Clear,120,2013-06-25 03:54:00
11:54 PM,73.0,68.0,84,29.93,10.0,SSE,4.6,-,N/A,,Clear,150,2013-06-25 04:54:00